Regional Weather Roundup
Issued by NWS

Home | Current Version | Previous Version | Text Only | Print | Product List | Glossary Off
Versions: 1 2 3 4 5 6 7 8 9 10 11 12 13 14 15 16 17 18 19 20 21 22 23 24 25 26 27 28 29 30 31 32 33 34 35 36 37 38 39 40 41 42 43 44 45 46 47 48 49 50

000
ASUS43 KBIS 140420
RWRND

NORTH DAKOTA REGIONAL WEATHER ROUNDUP
NATIONAL WEATHER SERVICE BISMARCK ND
1100 PM CDT SUN JUL 13 2014

NOTE: "FAIR" INDICATES FEW OR NO CLOUDS BELOW 12,000 FEET WITH NO
SIGNIFICANT WEATHER AND/OR OBSTRUCTIONS TO VISIBILITY.


NDZ001>003-009>011-017-140500-
NORTHWEST NORTH DAKOTA

CITY           SKY/WX    TMP DP  RH WIND       PRES   REMARKS
WILLISTON      CLEAR     60  46  59 N9        30.18R
MINOT          CLOUDY    60  46  59 N12       30.10R
MINOT AFB      CLOUDY    61  48  63 N10       30.11R
$$

NDZ018>021-031>035-040>046-140500-
SOUTHWEST NORTH DAKOTA

CITY           SKY/WX    TMP DP  RH WIND       PRES   REMARKS
BISMARCK       CLEAR     63  45  51 N10       30.08R
DICKINSON      CLEAR     59  41  51 N10       30.15R
GARRISON         N/A     57  49  74 N7        30.11R
HETTINGER ARPT CLEAR     57  45  64 N9        30.16R
$$

NDZ004>008-012>016-024-026-027-054-140500-
NORTHEAST NORTH DAKOTA

CITY           SKY/WX    TMP DP  RH WIND       PRES   REMARKS
GRAND FORKS    MOCLDY    59  47  64 NW9       29.94S
GRND FRKS AFB  PTCLDY    59  47  64 NW12      29.96S
DEVILS LAKE    PTCLDY    57  45  62 NW17G23   30.00S
$$

NDZ022-023-025-028>030-036>039-047>053-140500-
SOUTHEAST NORTH DAKOTA

CITY           SKY/WX    TMP DP  RH WIND       PRES   REMARKS
FARGO          CLOUDY    64  46  52 NW14      29.95S
JAMESTOWN      CLOUDY    63  45  51 NW15G22   30.01R
$$



USA.gov is the U.S. government's official web portal to all federal, state and local government web resources and services.